Date String (YYYY-MM-DD hh:mm:ss) UTC,Instrument flags,Ambient pressure (hPa),Sample flow (lpm),Bypass flow (lpm),Sample temperature (°C),Ambient temperature (°C),ASC tube jacket temperature (°C),LED temperature (°C),Box temperature (°C),Sample RH (%),Span deviation,Mass concentration (μg/m³),Mass concentration (μg/m³),Mass concentration (μg/m³)
DateTimeUTC,F1_M11,P_M11,Q1_M11,Q2_M11,T1_M11,T2_M11,T3_M11,T4_M11,T5_M11,U1_M11,ZSPAN_M11,X0_M11,X2_M11,X1_M11
2021-09-06 09:00:00,,0830.1,5.00,0.00,29.8,28.5,00.0,39.0,31.5,09.5,0001.4,0014.84,0009.85,0009.30
2021-09-06 09:01:00,,0830.1,5.00,0.00,29.8,28.6,00.0,39.0,31.6,09.4,0001.1,0014.77,0009.82,0009.26
2021-09-06 09:02:00,,0830.1,5.00,0.00,29.9,28.7,00.0,39.0,31.6,09.3,0001.2,0014.78,0009.80,0009.25
2021-09-06 09:03:00,,0830.2,5.01,0.00,29.9,28.7,00.0,39.0,31.6,09.4,0001.6,0014.30,0009.73,0009.22
2021-09-06 09:04:00,,0830.1,5.00,0.00,29.9,28.8,00.0,39.0,31.7,09.3,0001.3,0014.25,0009.73,0009.22
2021-09-06 09:05:00,,0830.1,5.00,0.00,29.9,28.8,00.0,39.0,31.7,09.3,0001.4,0013.95,0009.71,0009.21
2021-09-06 09:06:00,,0830.1,5.00,0.00,29.9,28.9,00.0,39.0,31.7,09.4,0001.6,0013.50,0009.69,0009.20
2021-09-06 09:07:00,,0830.1,4.99,0.00,29.9,28.9,00.0,39.0,31.7,09.4,0001.8,0013.46,0009.67,0009.14
2021-09-06 09:08:00,,0830.1,5.00,0.00,30.0,28.9,00.0,39.0,31.7,09.5,0001.1,0013.34,0009.56,0009.05
2021-09-06 09:09:00,,0830.1,5.01,0.00,30.0,29.0,00.0,39.1,31.8,09.4,0000.4,0013.46,0009.43,0008.95
2021-09-06 09:10:00,,0830.1,4.99,0.00,30.0,29.0,00.0,39.1,31.7,09.4,0000.7,0013.49,0009.39,0008.92
2021-09-06 09:11:00,,0830.1,5.00,0.00,30.0,29.0,00.0,39.1,31.7,09.3,0001.2,0013.51,0009.35,0008.88
2021-09-06 09:12:00,,0830.1,5.00,0.00,30.0,29.0,00.0,39.1,31.7,09.6,0001.1,0013.57,0009.35,0008.86
2021-09-06 09:13:00,,0830.0,4.99,0.00,30.0,29.0,00.0,39.1,31.7,09.7,0000.9,0013.62,0009.37,0008.86
2021-09-06 09:14:00,,0830.1,5.00,0.00,30.0,29.1,00.0,39.1,31.7,09.8,0000.3,0013.65,0009.41,0008.88
2021-09-06 09:15:00,,0830.1,4.99,0.00,30.0,29.1,00.0,39.1,31.8,09.7,0000.3,0013.62,0009.40,0008.89
2021-09-06 09:16:00,,0830.1,5.02,0.00,30.0,29.1,00.0,39.1,31.8,09.3,0000.9,0013.95,0009.42,0008.89
2021-09-06 09:17:00,,0830.1,4.99,0.00,30.1,29.1,00.0,39.1,31.8,09.3,0000.9,0014.03,0009.43,0008.90
2021-09-06 09:18:00,,0830.0,5.00,0.00,30.1,29.1,00.0,39.1,31.8,09.3,0000.9,0014.14,0009.46,0008.94
2021-09-06 09:19:00,,0830.1,5.00,0.00,30.1,29.1,00.0,39.1,31.8,09.1,0000.9,0014.45,0009.49,0008.95
2021-09-06 09:20:00,,0830.1,5.00,0.00,30.1,29.1,00.0,39.2,31.8,09.0,0001.2,0014.10,0009.48,0008.94
2021-09-06 09:21:00,,0830.1,5.00,0.00,30.1,29.2,00.0,39.2,31.9,09.0,0001.0,0013.98,0009.47,0008.94
2021-09-06 09:22:00,,0830.0,5.00,0.00,30.1,29.2,00.0,39.2,31.9,08.9,0000.6,0013.96,0009.50,0008.96
2021-09-06 09:23:00,,0830.1,4.99,0.00,30.1,29.2,00.0,39.2,31.9,08.9,0000.7,0014.00,0009.51,0008.97
2021-09-06 09:24:00,,0830.1,5.02,0.00,30.2,29.2,00.0,39.2,31.9,08.9,0001.4,0013.85,0009.48,0008.96
2021-09-06 09:25:00,,0830.1,5.00,0.00,30.2,29.2,00.0,39.2,31.9,08.8,0001.4,0013.84,0009.47,0008.97
2021-09-06 09:26:00,,0830.1,4.99,0.00,30.2,29.2,00.0,39.2,31.9,08.7,0001.4,0014.09,0009.48,0008.97
2021-09-06 09:27:00,,0830.1,5.00,0.00,30.2,29.3,00.0,39.2,32.0,08.7,0001.5,0014.17,0009.48,0008.98
2021-09-06 09:28:00,,0830.1,5.01,0.00,30.2,29.3,00.0,39.3,32.0,08.7,0002.0,0014.06,0009.49,0008.97
2021-09-06 09:29:00,,0830.1,4.99,0.00,30.2,29.3,00.0,39.3,32.0,08.8,0001.9,0013.97,0009.48,0008.94
2021-09-06 09:30:00,,0830.1,5.01,0.00,30.2,29.3,00.0,39.3,32.0,08.8,0002.8,0013.90,0009.47,0008.93
2021-09-06 09:31:00,,0830.1,5.00,0.00,30.2,29.3,00.0,39.3,31.9,08.7,0002.8,0014.33,0009.52,0008.96
2021-09-06 09:32:00,,0830.2,5.00,0.00,30.2,29.3,00.0,39.3,31.9,08.8,0002.5,0014.39,0009.54,0008.97
2021-09-06 09:33:00,,0830.1,4.99,0.00,30.2,29.3,00.0,39.3,31.9,08.7,0002.6,0014.41,0009.53,0008.96
2021-09-06 09:34:00,,0830.1,4.99,0.00,30.2,29.3,00.0,39.3,31.9,08.7,0002.6,0014.47,0009.52,0008.97
2021-09-06 09:35:00,,0830.1,5.01,0.00,30.2,29.3,00.0,39.3,31.9,08.8,0002.0,0014.79,0009.52,0008.96
2021-09-06 09:36:00,,0830.1,4.99,0.00,30.2,29.3,00.0,39.3,31.9,08.9,0002.4,0015.06,0009.49,0008.93
2021-09-06 09:37:00,,0830.1,4.98,0.00,30.2,29.3,00.0,39.3,31.8,08.9,0002.3,0015.28,0009.46,0008.91
2021-09-06 09:38:00,,0830.1,4.99,0.00,30.1,29.2,00.0,39.3,31.8,09.0,0002.5,0015.06,0009.45,0008.91
2021-09-06 09:39:00,,0830.1,5.01,0.00,30.1,29.2,00.0,39.3,31.8,09.1,0002.0,0015.03,0009.45,0008.92
2021-09-06 09:40:00,,0830.1,5.00,0.00,30.1,29.2,00.0,39.3,31.8,08.8,0001.8,0014.96,0009.43,0008.93
2021-09-06 09:41:00,,0830.2,4.99,0.00,30.1,29.2,00.0,39.3,31.8,08.9,0001.7,0014.80,0009.43,0008.97
2021-09-06 09:42:00,,0830.1,5.01,0.00,30.1,29.2,00.0,39.3,31.8,08.8,0002.1,0014.62,0009.44,0008.99
2021-09-06 09:43:00,,0830.2,5.00,0.00,30.1,29.2,00.0,39.3,31.8,08.8,0002.0,0015.02,0009.44,0008.99
2021-09-06 09:44:00,,0830.1,4.99,0.00,30.1,29.2,00.0,39.3,31.9,09.0,0002.0,0015.02,0009.48,0009.02
2021-09-06 09:45:00,,0830.1,4.99,0.00,30.1,29.2,00.0,39.3,31.9,09.2,0002.2,0014.88,0009.50,0009.04
2021-09-06 09:46:00,,0830.1,4.99,0.00,30.1,29.3,00.0,39.3,31.9,09.1,0002.5,0014.61,0009.51,0009.06
2021-09-06 09:47:00,,0830.1,5.00,0.00,30.2,29.3,00.0,39.3,31.9,09.1,0002.5,0014.32,0009.53,0009.09
2021-09-06 09:48:00,,0830.1,5.01,0.00,30.2,29.3,00.0,39.3,32.0,09.0,0002.8,0013.79,0009.54,0009.12
2021-09-06 09:49:00,,0830.1,4.99,0.00,30.2,28.8,00.0,39.3,31.8,08.9,0002.7,0013.66,0009.56,0009.13
2021-09-06 09:50:00,,0830.1,5.01,0.00,30.0,26.9,00.0,39.2,31.3,08.9,0003.1,0013.70,0009.55,0009.13
2021-09-06 09:51:00,,0830.1,5.00,0.00,29.9,26.4,00.0,39.2,31.1,08.9,0003.7,0013.73,0009.57,0009.14
2021-09-06 09:52:00,,0830.1,4.99,0.00,29.8,26.7,00.0,39.1,31.2,08.9,0003.6,0013.65,0009.59,0009.13
2021-09-06 09:53:00,,0830.1,4.99,0.00,29.7,27.1,00.0,39.1,31.2,08.9,0003.4,0013.48,0009.58,0009.12
2021-09-06 09:54:00,,0830.1,5.00,0.00,29.7,27.5,00.0,39.0,31.2,08.9,0003.6,0013.14,0009.61,0009.16
2021-09-06 09:55:00,,0830.1,5.00,0.00,29.7,27.8,00.0,39.0,31.3,08.9,0003.9,0013.22,0009.62,0009.17
2021-09-06 09:56:00,,0830.1,5.00,0.00,29.7,28.0,00.0,39.0,31.3,08.9,0003.9,0014.31,0009.66,0009.18
2021-09-06 09:57:00,,0830.1,4.99,0.00,29.8,28.2,00.0,39.0,31.4,08.9,0003.4,0014.84,0009.66,0009.18
2021-09-06 09:58:00,,0830.1,5.00,0.00,29.8,28.4,00.0,39.0,31.4,09.3,0003.0,0014.88,0009.63,0009.16
2021-09-06 09:59:00,,0830.1,5.01,0.00,29.8,28.5,00.0,39.0,31.4,09.1,0002.5,0014.88,0009.61,0009.15
